Paris, IL

12:01 AM CDT on September 25, 2017 (GMT -0500)
Edgar County

Weather History for KPRG - November, 2013

Change the Weather History Date:

Sunday, November 3, 2013

  Actual Average (KHUF) Record (KHUF)
Temperature  
Mean Temperature 41 °F -  
Max Temperature 54 °F 58 °F 79 °F (1961)
Min Temperature 28 °F 39 °F 19 °F (1996)
Degree Days  
Heating Degree Days 24    
Moisture  
Dew Point 34 °F    
Average Humidity 79    
Maximum Humidity 100    
Minimum Humidity 47    
Precipitation  
Precipitation 0.00 in - - ()
Sea Level Pressure  
Sea Level Pressure 30.26 in    
Wind  
Wind Speed 2 mph (SE)    
Max Wind Speed 10 mph    
Max Gust Speed -    
Visibility 10 miles    
Events      
Averages and records for this station are not official NWS values.
T = Trace of Precipitation, MM = Missing Value Source: NWS Daily Summary

Daily Weather History Graph

Daily Weather History Graph

Search for Another Location

Airport or City:

Trip Planner

Search our weather history database for the weather conditions in past years. The results will help you decide how hot, cold, wet, or windy it might be!

Date:

Astronomy

Nov. 03, 2013 Rise Set
Actual Time 6:21 AM CST 4:46 PM CST
Civil Twilight 5:53 AM CST 5:14 PM CST
Nautical Twilight 5:21 AM CST 5:46 PM CST
Astronomical Twilight 4:50 AM CST 6:17 PM CST
Moon 6:25 AM CST (11/3) 5:00 PM CST (11/3)
Length of Visible Light 11h 20m
Length of Day
10h 24m
New Moon, 0% of the Moon is Illuminated
Nov 3
New Moon
Nov 9
First Quarter
Nov 17
Full
Nov 25
Last Quarter
Dec 2
New

Hourly Weather History & Observations

Time (CST) Temp. Windchill Dew Point Humidity Pressure Visibility Wind Dir Wind Speed Gust Speed Precip Events Conditions
12:15 AM 32.0 °F - 31.8 °F 99% 30.16 in 10.0 mi Calm Calm - N/A   Clear
12:35 AM 32.2 °F - 32.0 °F 99% 30.17 in 10.0 mi Calm Calm - N/A   Clear
12:55 AM 32.0 °F - 31.5 °F 98% 30.17 in 10.0 mi Calm Calm - N/A   Clear
1:15 AM 32.9 °F - 32.4 °F 98% 30.16 in 10.0 mi Calm Calm - N/A   Clear
1:35 AM 31.3 °F - 30.9 °F 99% 30.18 in 10.0 mi Calm Calm - N/A   Clear
1:55 AM 30.7 °F - 30.2 °F 98% 30.18 in 10.0 mi Calm Calm - N/A   Clear
1:15 AM 32.0 °F - 31.8 °F 99% 30.19 in 10.0 mi Calm Calm - N/A   Clear
1:35 AM 32.2 °F - 32.0 °F 99% 30.19 in 10.0 mi Calm Calm - N/A   Clear
1:55 AM 32.0 °F - 31.8 °F 99% 30.20 in 10.0 mi Calm Calm - N/A   Clear
2:15 AM 31.6 °F - 31.1 °F 98% 30.21 in 10.0 mi Calm Calm - N/A   Clear
2:35 AM 31.8 °F - 31.6 °F 99% 30.22 in 10.0 mi Calm Calm - N/A   Clear
2:55 AM 32.0 °F - 31.8 °F 99% 30.23 in 10.0 mi Calm Calm - N/A   Clear
3:15 AM 31.8 °F - 31.5 °F 99% 30.23 in 10.0 mi Calm Calm - N/A   Clear
3:35 AM 30.2 °F - 29.8 °F 99% 30.23 in 10.0 mi Calm Calm - N/A   Clear
3:55 AM 30.2 °F - 29.8 °F 99% 30.23 in 10.0 mi Calm Calm - N/A   Clear
4:15 AM 30.2 °F - 29.8 °F 99% 30.24 in 10.0 mi Calm Calm - N/A   Clear
4:35 AM 30.0 °F - 29.7 °F 99% 30.25 in 10.0 mi Calm Calm - N/A   Clear
4:55 AM 30.7 °F - 30.2 °F 98% 30.25 in 10.0 mi Calm Calm - N/A   Clear
5:15 AM 30.7 °F - 30.6 °F 99% 30.26 in 10.0 mi Calm Calm - N/A   Clear
5:35 AM 30.2 °F - 30.0 °F 99% 30.26 in 3.0 mi Calm Calm - N/A   Clear
5:55 AM 28.6 °F - 28.4 °F 99% 30.27 in 2.5 mi Calm Calm - N/A   Clear
6:15 AM 28.4 °F - 28.4 °F 100% 30.28 in 7.0 mi Calm Calm - N/A   Clear
6:35 AM 29.1 °F - 28.9 °F 99% 30.28 in 7.0 mi Calm Calm - N/A   Clear
6:55 AM 29.3 °F - 29.3 °F 100% 30.29 in 7.0 mi Calm Calm - N/A   Clear
7:15 AM 30.7 °F - 30.6 °F 99% 30.29 in 7.0 mi Calm Calm - N/A   Clear
7:35 AM 32.9 °F - 32.9 °F 100% 30.30 in 5.0 mi Calm Calm - N/A   Clear
7:55 AM 35.1 °F - 34.7 °F 99% 30.31 in 7.0 mi Calm Calm - N/A   Clear
8:15 AM 37.8 °F - 37.0 °F 97% 30.32 in 10.0 mi Calm Calm - N/A   Clear
8:35 AM 39.9 °F - 37.8 °F 92% 30.32 in 10.0 mi Calm Calm - N/A   Clear
8:55 AM 42.1 °F - 38.8 °F 88% 30.33 in 10.0 mi Calm Calm - N/A   Clear
9:15 AM 44.6 °F - 39.9 °F 84% 30.33 in 10.0 mi Calm Calm - N/A   Clear
9:35 AM 47.1 °F - 39.6 °F 75% 30.33 in 10.0 mi ESE 3.5 mph - N/A   Clear
9:55 AM 48.4 °F - 39.4 °F 71% 30.33 in 10.0 mi SE 5.8 mph - N/A   Clear
10:15 AM 49.3 °F - 38.5 °F 66% 30.32 in 10.0 mi SE 4.6 mph - N/A   Clear
10:35 AM 51.1 °F - 38.7 °F 63% 30.32 in 10.0 mi SSE 6.9 mph - N/A   Clear
10:55 AM 51.8 °F - 37.2 °F 58% 30.32 in 10.0 mi SE 6.9 mph - N/A   Clear
11:15 AM 52.2 °F - 36.3 °F 55% 30.31 in 10.0 mi SE 4.6 mph - N/A   Clear
11:35 AM 52.5 °F - 34.7 °F 51% 30.31 in 10.0 mi SE 5.8 mph - N/A   Clear
11:55 AM 52.9 °F - 34.3 °F 49% 30.30 in 10.0 mi SE 5.8 mph - N/A   Clear
12:15 PM 53.4 °F - 35.1 °F 50% 30.29 in 10.0 mi SSE 5.8 mph - N/A   Clear
12:35 PM 54.3 °F - 35.6 °F 49% 30.28 in 10.0 mi SSE 8.1 mph - N/A   Scattered Clouds
12:55 PM 54.3 °F - 34.3 °F 47% 30.28 in 10.0 mi SSE 5.8 mph - N/A   Scattered Clouds
1:15 PM 54.1 °F - 34.3 °F 47% 30.28 in 10.0 mi SSE 10.4 mph - N/A   Scattered Clouds
1:35 PM 54.5 °F - 35.2 °F 48% 30.27 in 10.0 mi South 8.1 mph - N/A   Clear
1:55 PM 54.1 °F - 34.7 °F 48% 30.26 in 10.0 mi SE 8.1 mph - N/A   Clear
2:15 PM 54.5 °F - 35.4 °F 49% 30.26 in 10.0 mi SE 8.1 mph - N/A   Clear
2:35 PM 54.5 °F - 34.5 °F 47% 30.27 in 10.0 mi SE 6.9 mph - N/A   Clear
2:55 PM 54.1 °F - 35.2 °F 49% 30.27 in 10.0 mi SE 10.4 mph - N/A   Clear
3:15 PM 54.0 °F - 35.6 °F 50% 30.26 in 10.0 mi SE 6.9 mph - N/A   Clear
3:35 PM 53.2 °F - 34.3 °F 49% 30.26 in 10.0 mi ESE 6.9 mph - N/A   Clear
3:55 PM 52.7 °F - 36.1 °F 53% 30.26 in 10.0 mi SE 6.9 mph - N/A   Clear
4:15 PM 51.3 °F - 36.5 °F 57% 30.25 in 10.0 mi SE 5.8 mph - N/A   Clear
4:35 PM 48.9 °F - 37.6 °F 65% 30.25 in 10.0 mi SE 4.6 mph - N/A   Clear
4:55 PM 46.6 °F - 36.7 °F 68% 30.26 in 10.0 mi SE 3.5 mph - N/A   Clear
5:15 PM 46.2 °F 44.1 °F 35.4 °F 66% 30.26 in 10.0 mi ESE 4.6 mph - N/A   Clear
5:35 PM 46.4 °F - 35.1 °F 65% 30.26 in 10.0 mi Calm Calm - N/A   Clear
5:55 PM 45.5 °F 43.2 °F 34.7 °F 66% 30.25 in 10.0 mi ESE 4.6 mph - N/A   Clear
6:15 PM 42.1 °F - 34.7 °F 75% 30.26 in 10.0 mi Calm Calm - N/A   Clear
6:35 PM 39.6 °F - 34.0 °F 80% 30.27 in 10.0 mi Calm Calm - N/A   Clear
6:55 PM 37.8 °F - 32.9 °F 83% 30.27 in 10.0 mi Calm Calm - N/A   Clear
7:15 PM 37.4 °F - 32.5 °F 83% 30.27 in 10.0 mi Calm Calm - N/A   Clear
7:35 PM 36.1 °F - 32.2 °F 86% 30.28 in 10.0 mi Calm Calm - N/A   Clear
7:55 PM 40.6 °F 38.6 °F 34.2 °F 78% 30.27 in 10.0 mi ESE 3.5 mph - N/A   Clear
8:15 PM 42.3 °F 40.5 °F 33.8 °F 72% 30.27 in 10.0 mi ESE 3.5 mph - N/A   Clear
8:35 PM 39.6 °F - 33.6 °F 79% 30.28 in 10.0 mi Calm Calm - N/A   Clear
8:55 PM 39.2 °F - 33.3 °F 79% 30.28 in 10.0 mi Calm Calm - N/A   Clear
9:15 PM 41.5 °F 38.6 °F 34.2 °F 75% 30.28 in 10.0 mi East 4.6 mph - N/A   Clear
9:35 PM 41.5 °F 38.6 °F 34.3 °F 76% 30.29 in 10.0 mi ESE 4.6 mph - N/A   Clear
9:55 PM 42.1 °F 37.7 °F 34.2 °F 74% 30.27 in 10.0 mi ESE 6.9 mph - N/A   Clear
10:15 PM 42.4 °F 38.1 °F 34.0 °F 72% 30.27 in 10.0 mi SE 6.9 mph - N/A   Clear
10:35 PM 41.2 °F 36.6 °F 34.3 °F 77% 30.26 in 10.0 mi ESE 6.9 mph - N/A   Clear
10:55 PM 40.8 °F 38.8 °F 34.3 °F 78% 30.27 in 10.0 mi SE 3.5 mph - N/A   Clear